STARLINK-1122, 44949

Orbit data source: Space-Track

STARLINK-1122, 44949 is a payload satellite owned by SpaceX/Seattle (US) in LEO that was launched on Tue, 07 Jan 2020 UTC via an FALCON 9 launch vehicle from the Air Force Eastern Test Range (AFETR). Payload-class satellites include a variety of spacecraft equipped with specific instruments for various scientific and technological missions. These include communications satellites like Starlink; space stations such as the ISS; scientific satellites like the Hubble; Earth observation satellites from companies like Planet Labs, Umbra, and HawkEye 360; GPS; miniature CubeSats for education and research; and military/defense satellites.

Loading next visibility...
Identifier
44949, 2020-001AM
Orbit
LEO
Country
Flag of USUS
Related business
Manufacturer
SpaceX/Seattle
Mission
Operational Commercial Communications
Bus & Motor
STARLINK, Unknown motor
Mass
260 kg wet, ~248 kg dry
Launch date (UTC)
2020-01-07 (6 years ago)
Launch vehicle
FALCON 9
Launch site
Air Force Eastern Test Range (AFETR)
Object type
Payload
Rocket body
Debris
Shape & HBR
Box + 1 Pan, 4.4 m
Radar Cross Section
13.562 m², Large (>1 m²)

Expand to show TLE details & history
Last TLE update: 12 hours ago

TLE from 12 hours ago
0 STARLINK-1122
1 44949U 20001AM  25242.87834174 -.00000188  00000-0  63112-5 0  9996
2 44949  53.0530 103.1993 0001597  91.5006 268.6166 15.06394551311365
Epoch: 2025-08-30T21:04Z
TLE epoch observation values (Epoch: 2025-08-30T21:04:48.726Z)
Latitude
-0.00001°
Longitude
167.68995°
Altitude
548.134 km
Speed
7.589 km/s
True Right ascension
06h 52m 47s
True Declination
0° 00' 00"
Sunlit
Object was in daylight at epoch
Visualization orbit readout
Latitude
Unknown
Longitude
Unknown
Altitude
Unknown
Speed
Unknown
Apparent Right ascension
Unknown
Apparent Declination
Unknown
Sunlit
N/A
Visualization observer readout
Local Sidereal Time
00:14:10
Azimuth
Unknown
Elevation
Unknown
Doppler factor
Unknown
Orbital elements
Apogee altitude
548.605 km
Perigee altitude
546.393 km
Semi-major axis
6,925.636 km
Eccentricity
0.00016
Inclination
53.053°
RAAN
103.1993°
Arg. of periapsis
91.5006°
True anomaly
268.59831°
Mean anomaly
268.6166°
Eccentric anomaly
268.60745°
Mean motion
3.76577 °/min
Orbital period
95.6 mins
BSTAR
0.0000063112
Loading maneuver chart data...
Computing Atmospheric mass density...

Documentation

Showing up to 5 results
|